Погода в Чкалове

Россия / Оренбургская область     51°43′14″N   55°21′54″E
темп.,
°C
ветер,
м/с
пор.,
м/с
влажн.,
%
обл.,
%
осадки,
мм/ч
давл.,
гПа
погр.,
м
31 июля, сб
сб3123:00+25зюз34455 0.0 100856
02:00+22з225799 0.1 100914
05:00+21в005919 0.1 100911
08:00+26зюз344670 0.1 1009206
11:00+31юз573463 0.5 1010959
14:00+35ююз792325 0.0 10092547
17:00+36з91016100 0.0 10074073
20:00+30з6113075 0.0 1010890
1 августа, вс
вс123:00+25з334081 0.0 101121
02:00+23з33465 0.0 101128
05:00+22з225898 0.0 101229
08:00+26зсз225290 0.0 1013238
11:00+32зсз46367 0.0 10131547
14:00+35сз79279 0.0 10123198
17:00+35сз88235 0.0 10122893
20:00+31с57230 0.0 1013469
2 августа, пн
пн223:00+25св22375 0.0 101411
02:00+24юв22391 0.0 101411
05:00+22всв22431 0.0 101511
08:00+26юв11350 0.0 1016152
11:00+33юз12230 0.0 10151191
14:00+35з34205 0.0 10143323
17:00+37зюз351756 0.0 10123625
20:00+32з112374 0.0 101222
3 августа, вт
вт323:00+29всв23288 0.0 101355
02:00+26в223515 0.0 101320
05:00+25ююв333719 0.0 101431
08:00+29юз35296 0.0 1014190
11:00+34юз452030 0.0 10141273
14:00+39ююз451499 0.0 10124593
17:00+38ю661416 0.0 10113345
20:00+34юв451860 0.0 101185
4 августа, ср
ср423:00+28юз2330100 0.1 101227
02:00+26ю2331100 0.0 101326
05:00+25юв483699 0.1 1012113
08:00+30юв5102793 0.0 1012401
11:00+35ю4618100 0.0 1011819
14:00+40ю6712100 0.0 10094740
17:00+40юз77948 0.0 10075020
20:00+36ююз271498 0.0 1007241